Regional Weather Roundup
Issued by NWS

Home | Current Version | Previous Version | Text Only | Print | Product List | Glossary Off
Versions: 1 2 3 4 5 6 7 8 9 10 11 12 13 14 15 16 17 18 19 20 21 22 23 24 25 26 27 28 29 30 31 32 33 34 35 36 37 38 39 40 41 42 43 44 45 46 47 48 49 50

000
ASUS43 KMKX 252121
RWRWI

WISCONSIN REGIONAL WEATHER ROUNDUP
NATIONAL WEATHER SERVICE MILWAUKEE/SULLIVAN WI
400 PM CDT SUN SEP 25 2016

NOTE: "FAIR" INDICATES FEW OR NO CLOUDS BELOW 12,000 FEET WITH NO
SIGNIFICANT WEATHER AND/OR OBSTRUCTIONS TO VISIBILITY.

WIZ001-002-006>008-014>016-023>028-252200-
NORTHWEST WISCONSIN

CITY           SKY/WX    TMP DP  RH WIND       PRES   REMARKS
SUPERIOR ARPT  CLOUDY    62  53  72 W10       29.79S
ASHLAND        PTSUNNY   70  57  63 SW17G25   29.77S
HAYWARD        CLOUDY    63  53  70 SW13G24   29.83R
SIREN          CLOUDY    62  52  70 SW12      29.84F
CUMBERLAND     CLOUDY    61  50  67 SW15      29.87S
RICE LAKE      CLOUDY    62  51  67 W12G22    29.89R
CHETEK         NOT AVBL
LADYSMITH      CLOUDY    68  54  60 W15G21    29.86R
EAU CLAIRE     PTSUNNY   67  54  63 W13G22    29.86F
MENOMONIE      PTSUNNY   65  59  80 W20       29.88S
NEW RICHMOND   PTSUNNY   64  51  64 SW13G18   29.87F
OSCEOLA        CLOUDY    64  53  68 SW10      29.89F
$$

WIZ003>005-009-010-017-018-252200-
NORTH CENTRAL WISCONSIN

CITY           SKY/WX    TMP DP  RH WIND       PRES   REMARKS
MANITOWISH WTR NOT AVBL
ARBOR VITAE    CLOUDY    67  65  94 S7        29.82F
WOODRUFF       CLOUDY    67  65  94 S7        29.82F
RHINELANDER    PTSUNNY   67  67 100 VRB7      29.84F
EAGLE RIVER    LGT RAIN  65  65 100 SW7       29.84F
LAND O LAKES   LGT RAIN  65  64  98 S5        29.85F
PHILLIPS       MOSUNNY   67  61  79 SW13G18   29.82F
TOMAHAWK       MOSUNNY   68  65  90 CALM      29.84F
MEDFORD        CLOUDY    68  65  92 SW7G17    29.85R
MERRILL        CLOUDY    69  67  93 SW7       29.85F
$$

WIZ029-030-035-036-043>047-252200-
CENTRAL WISCONSIN

CITY           SKY/WX    TMP DP  RH WIND       PRES   REMARKS
WAUSAU         PTSUNNY   69  66  90 SW8       29.82F
MOSINEE        PTSUNNY   70  68  94 SW9       29.86F FOG
MARSHFIELD     CLOUDY    72  64  76 W14       29.84F
STEVENS POINT  CLOUDY    70  67  91 SW9       29.85F
WAUPACA        CLOUDY    75  73  93 SW7       29.85F
WAUTOMA        CLOUDY    75  70  83 SW10      29.85F
WISC RAPIDS    CLOUDY    74  68  81 SW10      29.85F
CAMP DOUGLAS   NOT AVBL
$$

WIZ011>013-019>022-031-037>040-048>050-252200-
NORTHEAST WISCONSIN

CITY           SKY/WX    TMP DP  RH WIND       PRES   REMARKS
ANTIGO         CLOUDY    67  67  97 SW6       29.85F
SHAWANO        CLOUDY    72  69  91 SW5       29.85R
OCONTO         NOT AVBL
STURGEON BAY   PTSUNNY   68  63  84 S16G24    29.87F
GREEN BAY      CLOUDY    72  67  84 SE14      29.83F
MANITOWOC      PTSUNNY   69  63  81 S24       29.88F
APPLETON       RAIN      72  66  83 S13       29.84F
CLINTONVILLE   NOT AVBL
OSHKOSH        RAIN      73  70  90 S15G22    29.84F FOG
$$

WIZ032>034-041-042-053>061-252200-
SOUTHWEST WISCONSIN

CITY           SKY/WX    TMP DP  RH WIND       PRES   REMARKS
LA CROSSE      CLOUDY    72  55  55 W18G25    29.88R
SPARTA         CLOUDY    73  64  74 W8        29.86F
VIROQUA        CLOUDY    71  58  64 W14G20    29.90S
BOSCOBEL       CLOUDY    75  66  73 SW10      29.89S
PRAIRIE DU CHI CLOUDY    72  58  61 W12       29.91R
PLATTEVILLE    MOSUNNY   75  68  77 SW15      29.91F
$$

WIZ056-057-062-063-064-067-068-252200-
SOUTH CENTRAL WISCONSIN

CITY           SKY/WX    TMP DP  RH WIND       PRES   REMARKS
REEDSBURG      NOT AVBL
BARABOO/DELLS  CLOUDY    75  65  73 SW9       29.87F
LONE ROCK      CLOUDY    75  66  73 W10       29.88F
MINERAL POINT  CLOUDY    77  64  65 SW14G20   29.91F
MADISON        PTSUNNY   76  70  82 SW7       29.86F
MIDDLETON      PTSUNNY   78  70  76 W12       29.88S HX  80
WATERTOWN      CLOUDY    74  74 100 SW5       29.87F
MONROE         MOSUNNY   79  70  73 SW14      29.90S HX  81
JANESVILLE     MOSUNNY   75  73  94 CALM      29.89
$$

WIZ051-052-058>065-066-070>072-252200-
SOUTHEAST WISCONSIN

CITY           SKY/WX    TMP DP  RH WIND       PRES   REMARKS
MILWAUKEE      TSTM      74  64  71 S14       29.89F
WAUKESHA       RAIN      66  66 100 S12G23    29.93R
MILWAUKEE/TIMM TSTM      73  61  64 MISG      29.94R VSB 1
RACINE         SUNNY     72  63  73 S15       29.91F
BURLINGTON     LGT RAIN  71  69  91 S5G10     29.90R VSB 1
KENOSHA        MOSUNNY   76  65  68 SE12      29.89F
FOND DU LAC    LGT RAIN  75  71  87 S10       29.86F
SHEBOYGAN      SUNNY     69  63  81 S14G24    29.89F
WEST BEND      CLOUDY    70  63  78 SE8       29.88F
JUNEAU         CLOUDY    73  70  90 S3        29.88S
$$

LSZ147-162-252200-
LAKE SUPERIOR

STATION/POSITION TIME  TEMP    WIND        PRES    WAVE
                       AIR SEA DIR/SP/G            HT/PER
                 (UTC) (F)     (DEG/KT/KT) (MB)    (FT/S)
W MID LAKE BUOY  2050   66 62  180/ 16/ 17 1006.1F   3/ 4
DEVILS ISLAND    2100   63     250/ 13/ 17 1006.9F
SAXON HARBOR     2040   74     200/ 12/ 20 1007.5F
$$

LMZ867-665-643>646-252200-
LAKE MICHIGAN

STATION/POSITION TIME  TEMP    WIND        PRES    WAVE
                       AIR SEA DIR/SP/G            HT/PER
                 (UTC) (F)     (DEG/KT/KT) (MB)    (FT/S)
CHAMBERS ISLAND  2000   67     190/  5/ 12 1013.2S
N MID LAKE BUOY  2050   68 68  140/ 10/ 12 1012.5F   4/ 6
NORTHPORT PIER   2020   68     150/ 13/ 23 1012.9F
KEWAUNEE LAKESHO 2000   66     170/ 17/ 20 1013.0F
SHEBOYGAN LAKESH 2100   64     180/ 13/ 14 1011.6F
PORT WASHINGTON  2040   65     200/  4/  7 1013.2F
ATWATER BUOY     2100   61 52  180/  8/ 12 1012.4F
MILWAUKEE LAKESH 2010   62     160/  9/ 10   N/A
S MID LAKE BUOY  2050   73 72  130/ 16/ 19 1012.8F   3/ 5
KENOSHA   LAKESH 2100   69     170/ 13/ 15 1011.9F
$$

TC  - TEMPERATURE IN CELSIUS
VSB - VISIBILITY IN STATUTE MILES
WCI - WIND CHILL INDEX
HX  - HEAT INDEX




USA.gov is the U.S. government's official web portal to all federal, state and local government web resources and services.